SCP
0 0 0 0 0 0 0 0 0 0 0 0 0 0 0 0 0 0 -0 -0 -0 0 0 0 0 0 -0 0 0 0 0 0 0 0 0 0 0 0
0 0 0 0 0 0 0 0 0 0 0 0 0 0 0 0 -0 -0 -0 -0 -0 0 0 0 0 0 0 0 0 0 0 0 0 0 0 0 0 0
0 0 0 0 0 0 0 0 0 0 0 0 0 0 0 -0 -0 -0 -0 -0 -0 0 0 0 0 0 0 0 0 0 0 0 0 0 0 0 0 0
0 0 0 0 0 0 0 0 0 0 0 0 0 0 0 0 0 -0 -0 -0 -0 0 0 0 0 0 0 0 0 0 0 0 0 0 0 0 0 0
0 0 0 0 0 0 0 0 0 0 0 0 0 0 0 0 0 -0 -0 -0 -0 0 0 0 -0 -0 0 0 0 0 0 0 0 0 0 0 0 0
0 0 0 -0 -0 -0 0 0 0 0 0 0 0 0 0 0 0 -0 -0 -0 -0 -0 -0 -0 -0 -0 -0 0 0 0 0 0 0 0 0 0 0 0
0 0 0 -0 -0 -0 0 0 0 0 0 0 0 0 0 0 0 -0 -0 -0 -0 -0 -0 -0 -0 -0 -0 0 0 0 0 0 0 0 0 0 0 0
0 0 0 -0 -0 -0 0 0 0 0 0 0 0 0 0 0 0 0 0 0 -0 -0 -0 -0 -0 -0 0 0 0 0 0 0 0 0 0 0 0 0
0 0 0 0 0 0 0 0 -0 -0 0 0 0 0 0 0 0 0 0 0 -0 -0 -0 -0 -0 -0 -0 0 0 0 0 0 0 0 0 0 0 0
0 0 0 0 0 0 0 0 -0 -0 -0 0 0 -0 0 0 0 0 0 0 -0 -0 -0 -0 -0 -0 -0 0 0 0 0 0 0 0 0 0 0 0
0 0 0 0 0 0 0 0 -0 -0 -0 0 -0 -0 -0 -0 -0 -0 -0 0 0 0 -0 -0 -0 -0 -0 -0 0 0 0 0 0 0 0 0 0 0
0 0 0 0 0 0 0 0 0 0 0 0 -0 -0 0 0 -0 -0 0 0 0 0 0 0 -0 -0 -0 0 0 0 0 0 0 0 0 -0 -0 -0
0 0 0 0 0 0 0 0 0 0 -0 0 0 0 0 0 0 0 0 0 0 0 0 0 0 0 0 0 0 0 0 0 0 0 0 -0 -0 -0
0 0 0 0 0 0 0 0 0 0 -0 0 0 0 0 0 0 0 0 0 0 0 0 0 0 0 0 0 0 0 0 0 0 0 0 -0 -0 -0
0 0 0 0 0 0 0 0 0 0 -0 0 0 0 0 0 0 0 0 0 0 0 0 0 0 0 0 0 0 0 0 0 0 0 0 0 -0 -0
0 0 0 0 0 0 0 0 0 -0 0 0 0 0 0 0 0 0 0 0 0 0 0 0 0 0 0 0 0 0 0 0 0 0 0 0 0 0
-0 -0 -0 -0 0 0 0 0 0 0 0 0 0 0 0 0 0 0 0 0 0 0 -0 -0 0 0 0 0 0 0 0 0 0 0 0 0 0 0
-0 -0 -0 -0 0 0 0 0 0 0 0 0 0 0 0 0 0 0 0 0 0 0 0 -0 0 0 0 0 0 0 0 0 0 -0 0 0 0 0
0 0 0 0 0 0 0 0 0 0 0 0 0 0 -0 0 0 0 0 0 0 0 0 0 0 0 0 0 0 0 0 0 0 -0 -0 0 0 0
0 0 0 0 0 0 0 0 0 0 0 0 0 -0 -0 -0 -0 0 0 0 0 0 0 0 0 0 0 0 0 0 0 0 0 0 0 0 0 0
0 0 0 0 0 0 0 0 0 0 0 0 -0 -0 -0 -0 -0 0 0 0 0 0 0 0 0 0 0 0 0 0 0 0 0 0 0 0 0 0
0 0 0 0 0 0 0 0 0 0 0 0 -0 -0 -0 -0 -0 0 0 0 0 0 0 0 0 0 0 0 0 0 0 0 0 0 0 0 0 0
0 0 0 0 0 0 0 0 0 0 0 0 0 0 0 -0 -0 0 0 0 0 0 0 0 0 0 0 0 0 0 0 0 0 0 0 0 0 0
Wind_Speed
7 7 6 5 4 4 4 5 6 5 2 1 1 1 1 2 3 2 2 5 6 5 4 3 2 3 3 4 5 5 6 7 8 9 9 10 10 11
6 8 7 5 5 5 4 3 4 5 4 2 2 2 1 2 3 2 3 6 6 7 5 4 4 3 3 4 4 5 5 6 7 8 9 9 10 10
7 9 8 7 6 5 4 5 4 4 5 1 0 1 0 1 2 2 2 2 3 6 6 6 5 5 4 4 4 3 4 5 6 7 8 8 9 10
8 9 8 7 7 6 5 5 4 3 5 3 1 2 1 1 2 2 2 1 2 4 6 6 6 6 5 4 4 3 3 4 5 6 7 8 9 9
8 8 7 8 8 6 6 6 4 4 4 4 2 2 2 2 2 3 3 2 2 2 4 6 6 6 6 5 5 4 4 4 4 5 6 7 8 9
7 7 7 7 6 6 6 5 5 5 5 4 3 2 2 2 3 3 3 3 2 2 2 3 4 5 5 6 6 6 5 5 5 5 6 6 7 8
7 6 7 8 8 6 5 4 5 5 4 4 3 2 2 3 2 2 2 3 3 1 2 2 1 1 3 5 6 7 7 6 6 6 6 7 7 8
6 6 6 8 9 9 8 6 6 5 4 3 2 1 1 1 1 1 1 2 3 3 2 3 1 2 3 3 6 8 8 8 7 7 7 7 8 8
5 4 5 6 6 5 7 8 5 4 5 4 3 2 2 2 1 1 1 1 3 3 1 2 2 2 3 4 7 8 9 9 9 8 8 8 8 9
5 5 5 5 5 5 6 6 5 3 1 2 3 3 4 3 3 2 2 2 3 2 1 1 3 2 3 3 6 8 9 9 10 10 9 9 9 9
5 5 5 5 7 8 6 5 5 4 3 2 3 4 6 5 4 1 1 2 2 3 1 0 2 2 3 3 5 7 8 10 10 10 10 10 10 8
4 4 5 5 6 7 5 4 3 3 5 6 5 5 3 2 3 4 2 2 1 3 3 0 1 1 3 4 3 3 4 7 9 10 11 11 9 4
2 2 2 4 5 5 3 1 1 3 3 3 3 3 3 3 2 2 4 4 3 4 4 2 1 1 1 3 4 3 3 3 3 5 7 10 9 5
1 1 2 4 4 5 2 2 3 3 2 2 3 3 3 3 3 3 3 4 5 6 5 3 3 3 2 2 4 4 3 3 2 3 4 6 7 6
1 2 3 5 5 4 5 6 4 2 2 2 2 2 3 4 3 3 3 3 3 5 4 4 4 3 3 3 3 3 4 4 2 3 3 3 3 2
3 4 5 5 4 4 4 4 2 0 1 0 2 3 3 3 3 2 2 3 3 5 5 3 3 4 3 3 3 3 3 3 3 3 3 4 3 2
2 3 4 4 4 4 3 3 3 2 2 2 2 3 3 3 3 2 2 2 2 3 5 4 3 2 5 4 2 4 3 3 3 2 2 4 4 4
3 3 2 2 2 2 2 2 2 2 2 2 2 2 2 3 3 3 2 2 2 3 3 3 3 4 4 3 6 4 3 3 3 2 1 2 5 4
3 2 1 1 1 1 1 1 1 2 2 2 2 3 3 3 3 3 3 3 3 3 3 2 1 0 1 4 7 4 4 3 2 3 2 2 4 5
2 1 0 0 0 1 1 1 2 3 2 3 3 3 3 3 3 4 4 3 3 3 4 3 2 2 4 4 4 5 5 5 3 3 3 2 4 5
1 1 0 0 1 1 2 2 2 2 3 3 3 4 4 3 3 4 5 6 4 3 3 4 5 5 3 1 2 5 5 5 7 4 2 2 3 4
1 1 1 2 2 2 2 3 3 3 3 3 3 3 4 3 4 5 5 5 4 3 3 4 5 3 2 1 2 4 5 6 4 5 8 7 3 3
2 2 2 2 2 2 2 3 3 2 2 3 3 3 4 4 4 4 5 5 4 4 3 4 4 4 2 1 1 2 4 5 4 5 5 5 9 12
Wind_Direction
75 74 74 69 72 79 106 132 137 136 144 228 242 255 219 220 239 225 240 248 243 245 253 262 288 317 335 346 352 358 0 1 2 1 359 358 355 352
77 75 68 66 69 71 84 85 103 125 135 202 220 231 220 229 236 237 252 257 243 237 239 242 255 276 295 311 330 347 355 359 358 356 355 354 352 351
71 75 70 69 72 63 69 78 83 102 116 98 341 337 11 308 316 311 281 255 248 239 237 239 244 253 270 289 309 331 345 352 352 351 350 350 350 348
74 73 69 73 65 62 71 76 81 92 117 110 35 10 354 309 318 319 317 282 257 248 239 238 240 245 251 263 276 293 317 333 340 344 346 348 347 345
79 78 74 75 68 64 66 67 68 74 85 106 77 18 2 358 9 352 352 343 288 249 235 242 246 246 243 249 260 271 288 305 319 328 333 336 339 339
75 75 74 78 80 75 71 68 77 76 77 86 73 35 18 355 33 13 353 341 330 328 308 270 251 250 249 249 254 261 273 286 298 308 315 319 324 327
68 66 70 76 77 77 86 83 84 83 80 80 69 41 16 16 3 334 348 328 323 329 327 315 303 279 269 262 257 258 265 276 287 295 300 305 310 315
77 65 61 53 56 61 74 92 108 110 107 98 86 80 315 299 318 344 1 8 323 312 347 313 333 274 268 253 252 255 262 272 280 285 290 297 303 310
88 76 65 49 47 51 54 60 65 95 127 139 144 200 227 234 242 344 338 280 257 278 3 313 318 288 275 263 255 257 263 269 275 278 283 289 298 308
89 92 83 51 43 66 67 56 42 32 101 172 200 226 228 220 197 204 237 287 298 298 104 310 309 296 295 293 274 265 267 271 274 276 279 284 294 304
74 80 84 69 56 72 73 61 36 2 360 346 261 255 254 242 200 150 25 45 348 307 322 162 295 310 306 293 286 281 279 277 276 276 278 281 287 300
59 54 64 74 65 70 77 71 38 338 337 343 350 348 335 313 209 184 177 157 230 288 281 228 289 338 324 297 291 295 294 288 283 278 277 277 281 290
78 38 10 42 53 57 80 106 305 310 317 333 340 342 342 336 308 235 201 181 190 245 249 187 241 250 237 293 303 289 277 281 296 288 284 281 278 259
88 345 313 344 3 6 13 329 347 14 18 17 13 346 327 313 300 288 249 225 217 230 244 190 209 207 214 282 290 299 300 281 271 278 286 295 290 273
19 325 325 332 345 348 341 348 13 42 35 23 345 305 285 284 296 315 321 305 284 263 248 210 205 208 190 220 259 278 298 299 285 280 290 287 277 273
6 347 354 1 5 341 339 360 34 85 127 296 294 299 313 332 336 335 334 339 340 320 312 281 221 199 219 234 227 259 258 275 294 294 290 292 285 254
8 18 20 20 21 17 16 16 20 28 22 344 345 348 346 348 336 335 341 349 341 308 311 318 319 237 221 212 244 261 268 276 266 280 309 307 292 274
65 44 23 27 30 26 28 17 9 0 342 345 359 355 345 341 335 337 347 344 318 295 290 295 329 350 349 298 221 237 268 265 277 282 247 285 295 292
73 53 34 16 21 32 26 7 338 326 335 4 9 355 344 342 346 342 341 337 323 306 293 286 285 125 341 306 296 224 213 267 290 298 269 227 257 279
71 93 96 271 336 12 3 350 346 353 6 12 10 1 357 351 346 339 333 322 309 305 309 307 274 217 207 231 266 286 237 219 245 269 280 282 274 282
52 73 72 99 54 43 36 33 33 29 26 27 20 9 1 358 344 333 326 325 322 310 307 293 280 280 227 186 315 306 297 255 216 216 238 300 318 326
120 82 72 90 91 74 58 56 55 46 31 27 10 0 352 351 339 329 324 320 309 295 286 287 308 345 44 28 302 293 305 319 310 254 225 207 202 243
141 117 112 104 95 85 80 72 69 46 24 9 357 347 344 339 329 323 319 317 313 314 317 324 337 357 4 352 316 307 318 325 336 343 324 286 245 251